Regional Weather Roundup
Issued by NWS

Home | Current Version | Previous Version | Text Only | Print | Product List | Glossary Off
Versions: 1 2 3 4 5 6 7 8 9 10 11 12 13 14 15 16 17 18 19 20 21 22 23 24 25 26 27 28 29 30 31 32 33 34 35 36 37 38 39 40 41 42 43 44 45 46 47 48 49 50

000
ASUS45 KBOU 310707
RWRCO

WEATHER ROUNDUP FOR COLORADO
NATIONAL WEATHER SERVICE DENVER/BOULDER CO
100 AM MDT THU JUL 31 2014

NOTE: "FAIR" INDICATES FEW OR NO CLOUDS BELOW 12000 FEET WITH NO
SIGNIFICANT WEATHER AND/OR OBSTRUCTIONS TO VISIBILITY.

COZ001>005-013-030-031-310800-
...NORTHWEST COLORADO...

CITY           SKY/WX    TMP DP  RH WIND       PRES   REMARKS
CRAIG          PTCLDY    55  54  96 NE5       30.31S
HAYDEN         PTCLDY    55  50  82 E7        30.32F
MEEKER         PTCLDY    58  54  86 CALM      30.31F
MOUNT WERNER   NOT AVBL
STEAMBOAT SPGS PTCLDY    54  53  94 CALM      30.34F
WALDEN         CLOUDY    50  45  81 CALM      30.43S
$$

COZ006>008-011-310800-
...WEST CENTRAL VALLEYS...

CITY           SKY/WX    TMP DP  RH WIND       PRES   REMARKS
GRAND JUNCTION PTCLDY    64  60  87 CALM      30.19S
MONTROSE       PTCLDY    66  55  67 SE7       30.27S
EAGLE          MOCLDY    57  57 100 CALM      30.36F
RIFLE          PTCLDY    62  56  80 CALM      30.25S
DELTA          PTCLDY    72  56  57 E5        30.21S
NUCLA          PTCLDY    66  54  63 CALM      30.29S
$$

COZ017>023-064>068-310800-
...SOUTHWEST COLORADO...

CITY           SKY/WX    TMP DP  RH WIND       PRES   REMARKS
DURANGO        CLEAR     63  50  62 CALM      30.25F
CORTEZ         CLEAR     61  53  75 NE8       30.22F
PAGOSA SPRINGS CLEAR     58  47  68 CALM      30.33F
TELLURIDE      PTCLDY    55  50  82 CALM      30.46F
WOLF CREEK PAS NOT AVBL
$$

COZ009-010-012-014-032>034-037-058>063-310800-
...CENTRAL COLORADO...

CITY           SKY/WX    TMP DP  RH WIND       PRES   REMARKS
ASPEN          CLOUDY    55  53  93 CALM      30.39F
BUENA VISTA    CLOUDY    54  50  88 CALM      30.45F
COPPER MTN     FOG       45  41  87 S8        30.65F VSB 1/4
BERTHOUD PASS  CLOUDY    36  36 100 W8        30.69F
COTTONWOOD PAS CLOUDY    50  48  93 CALM      30.55F
GUNNISON       MOCLDY    59  46  63 N3        30.40S
KREMMLING      CLOUDY    54  50  87 CALM      30.40F
LEADVILLE      CLOUDY    47  46  97 VRB3      30.53F
MONARCH PASS   SNOW      41  41 100 NE13      30.76S VSB<1/4
SALIDA         CLOUDY    55  53  94 SE3       30.50F
SUNLIGHT       CLOUDY    50  48  93 SE3       30.58F
WILKERSON PASS FOG       43  41  93 S6        30.65F VSB 1
$$

COZ069>075-310800-
...SAN LUIS VALLEY/SANGRE DE CRISTO MOUNTAINS...

CITY           SKY/WX    TMP DP  RH WIND       PRES   REMARKS
ALAMOSA        CLOUDY    55  52  89 SE6       30.38F
LA VETA PASS   SNOW      45  45 100 E6        30.56S VSB 1/4
SAGUACHE       CLOUDY    55  54  94 CALM      30.41S
$$

COZ035-036-038>040-310800-
...NORTHERN COLORADO FRONT RANGE...

CITY           SKY/WX    TMP DP  RH WIND       PRES   REMARKS
DENVER INTL AP CLOUDY    59  56  89 CALM      30.32F
DMNS CITY PARK   N/A     58  56  96 E1        30.32S
AURORA         CLOUDY    57  57 100 E2        30.34F
FRONT RANGE AP CLOUDY    59  57  94 CALM      30.33F
ERIE MUNI ARPT CLOUDY    60  57  91 CALM      30.31F
BOULDER MUN AP MOCLDY    57  55  94 CALM      30.31F
CENTENNIAL     CLOUDY    57  55  93 SE6       30.34F
BROOMFIELD     MOCLDY    59  55  88 CALM      30.33F
FORT COLLINS   CLOUDY    59  55  88 SW3       30.32S
LONGMONT       CLOUDY    60  58  93 CALM      30.32F
$$

COZ041-046-047-076>085-087-088-310800-
...PIKES PEAK/PALMER DIVIDE AND SOUTHERN FOOTHILLS...

CITY           SKY/WX    TMP DP  RH WIND       PRES   REMARKS
COLO. SPRINGS  LGT RAIN  56  53  90 CALM      30.39F
A. F. ACADEMY  CLOUDY    54  54 100 CALM      30.39F
ELLICOTT       CLOUDY    57  55  93 SW3       30.37F
FALCON         LGT RAIN  53  52  96 W5        30.41F
FORT CARSON    CLOUDY    56  55  96 S3        30.36F
LIMON          CLOUDY    56  55  97 CALM      30.34F
MONUMENT HILL  CLOUDY    52  50  93 CALM      30.39F
TRINIDAD       CLOUDY    58  56  93 CALM      30.36S
$$

COZ042>045-048>051-090-091-310800-
...NORTHEAST COLORADO...

CITY           SKY/WX    TMP DP  RH WIND       PRES   REMARKS
GREELEY ARPT   NOT AVBL
AKRON          CLOUDY    58  55  90 W6        30.29F
BURLINGTON     MOCLDY    59  55  87 W6        30.28F
WRAY             N/A    N/A N/A N/A SW5       30.25F
STERLING       CLOUDY    61  61 100 CALM      30.25F
HOLYOKE        PTCLDY    59  55  88 W5        30.24F
FORT MORGAN    CLOUDY    59  56  91 W6        30.29F
$$

COZ086-089-092>099-310800-
...SOUTHEAST COLORADO...

CITY           SKY/WX    TMP DP  RH WIND       PRES   REMARKS
PUEBLO         CLOUDY    62  60  93 CALM      30.31F
LA JUNTA       MOCLDY    61  58  90 SW5       30.30S
LAMAR          MOCLDY    59  58  96 S6        30.26S
SPRINGFIELD      N/A     55  54  96 CALM      30.29F
$$



USA.gov is the U.S. government's official web portal to all federal, state and local government web resources and services.